星链-3589 (STARLINK-3589 )

导读 | 豆包AI

STARLINK-3589是美国太空探索技术公司(SpaceX)星链(Starlink)星座中的一颗卫星,于2022年3月9日发射升空,属于星链互联网卫星星座组网卫星,旨在为全球提供高速低延迟互联网接入服务,推进星链计划近地轨道卫星组网部署,助力全球网络覆盖建设。

Basic Information
目录编号:
51997
目录名称:
STARLINK-3589
国际标识:
2022-025AT
轨道中心:
EARTH
卫星名称:
星链-3589
卫星全名:
星链-3589 (STARLINK-3589 )
卫星状态:
在轨 (已飞行1514 天)
发射日期:
2022-03-09 UTC
国别 :
美国 (US)
星等 :
--
Orbit Information
数据来源 国际轨道数据 AOE轨道数据
星历时间 2026-04-30T16:09:04+0800
16小时前
查看轨道信息
2026-04-28T07:00:00+0800
3天前
查看轨道信息
半长轴 6917.885km 6917.874km
偏心率 0.0001302 0.0001211
轨道倾角 53.216° 53.215°
近地点辐角 84.685° 79.027°
升交点赤经 147.256° 157.946°
平近点角 275.429° 299.318°
近地点 538.847km 538.899km
远地点 540.649km 540.575km
周期 95.438分钟 95.437分钟
每日圈数 15.088386 15.088423
Detailed Information
固有亮度:
5
最大亮度:
2.5
卫星平台:
Starlink v1.5
覆盖范围:
全球
运营商:
太空探索技术公司
运营商所在国:
美国
制造商(研发单位):
太空探索技术公司
制造商所在国:
美国
使用方式:
暂无
Satellite Introduction
星链(Starlink)计划是由太空探索技术公司(SpaceX)提出的一个巨型低轨卫星互联网星座项目,计划在2019年至2024年间在太空搭建由约1.2万颗卫星组成的“星链”网络,其中1584颗将部署在地球上空550千米处的近地轨道,并从2020年开始工作。该卫星仍在工作。
2D Orbit Map
3D Orbit Map
Orbit Altitude Analysis Chart
Orbit Inclination Analysis Chart
Orbit Comprehensive Analysis Chart
View Comprehensive Chart